Theta_e
336 340 342 340 339 336 335 337 336 338 338 339 338 337 336 335 335 331 330 330 330 332 332 333 331 332 335 335 335 334 333 333 335 333 332 331 332 332 333 330 331 333 334
336 341 342 341 339 337 334 336 336 337 336 337 336 336 336 335 334 331 330 330 330 330 330 330 330 332 334 333 329 327 331 333 330 328 332 332 333 333 332 331 331 332 332
336 342 342 341 339 338 334 333 334 335 336 336 335 334 334 333 332 332 330 330 330 329 329 330 330 331 331 327 326 326 328 328 329 328 331 331 333 333 332 331 331 331 330
337 342 342 341 339 339 337 332 334 334 335 334 334 334 333 332 331 331 330 329 329 329 330 330 329 329 329 326 326 326 328 328 330 330 331 332 332 332 330 328 328 327 326
339 341 342 342 341 339 338 332 334 336 335 335 336 334 333 331 330 330 330 330 329 330 330 330 330 330 329 327 327 327 328 328 330 329 330 331 330 330 328 326 325 324 323
341 341 341 342 341 340 339 332 334 336 335 335 335 333 332 331 330 330 329 329 330 330 330 330 330 330 330 327 326 327 327 329 330 329 328 329 327 328 325 324 322 321 321
341 342 340 341 341 340 339 332 334 335 335 333 332 332 331 330 329 328 329 328 328 328 331 330 330 330 329 327 326 326 327 328 328 327 327 327 328 326 324 321 320 319 319
340 340 342 341 341 340 339 332 333 334 334 332 331 331 330 329 328 327 328 328 328 328 331 331 330 329 327 326 326 326 327 327 327 327 327 327 326 325 323 320 319 318 317
339 340 342 340 340 340 337 331 332 334 332 330 330 330 330 327 327 327 327 327 328 328 328 329 328 327 325 327 326 326 327 326 327 327 327 327 326 324 321 319 318 317 316
338 338 339 340 339 338 335 332 333 332 329 329 329 328 329 327 327 327 326 327 328 329 329 328 327 325 325 327 326 327 326 326 326 325 325 326 325 322 320 318 317 316 315
337 337 338 338 336 335 334 332 332 330 329 328 327 329 328 327 326 326 326 327 328 328 328 327 326 324 323 327 328 327 326 326 325 323 323 326 324 322 319 318 317 316 315
336 337 337 336 335 334 333 332 331 329 327 327 326 327 327 326 325 325 324 326 327 328 328 328 325 324 324 325 327 326 325 325 323 321 322 325 324 322 321 319 317 315 314
335 336 337 336 335 333 332 331 330 328 328 326 326 326 325 325 324 324 325 326 327 328 330 328 325 323 325 326 327 326 325 323 321 320 319 322 325 324 322 320 318 316 314
333 336 336 336 334 334 331 330 329 329 327 326 326 325 325 324 323 324 324 326 327 328 327 325 323 323 325 326 326 325 324 322 321 320 318 319 323 324 323 321 320 317 314
322 335 336 335 334 333 330 329 329 327 325 325 324 324 324 323 322 323 324 325 327 327 325 325 323 323 324 325 325 324 323 322 321 319 318 317 319 323 323 322 321 319 316
315 327 335 334 333 331 329 329 328 326 325 325 324 324 323 323 323 325 322 324 326 327 326 326 323 322 323 324 324 324 323 322 320 319 318 317 317 318 322 324 322 320 317
311 323 331 333 332 330 329 329 328 326 326 324 323 323 322 322 322 324 322 322 326 327 326 326 323 322 322 323 323 322 322 321 320 319 318 318 317 315 319 323 323 321 318
313 327 328 333 331 330 328 328 327 326 325 324 324 322 322 321 323 324 321 321 324 327 326 325 323 321 321 321 322 321 321 320 319 318 318 317 317 316 316 318 322 321 318
311 322 330 331 331 329 327 327 327 327 325 324 324 323 323 322 322 323 321 320 322 326 326 325 323 322 321 321 320 320 319 318 317 316 316 316 315 315 315 317 320 318 316
319 321 326 330 331 329 327 326 326 326 326 325 324 324 323 323 323 323 324 320 322 322 326 325 323 321 320 321 319 317 316 316 315 315 315 315 314 314 315 317 317 316 315
325 325 325 327 330 330 328 327 326 325 325 325 325 324 323 323 323 324 324 322 322 322 324 325 323 320 318 317 315 312 313 314 314 314 314 314 313 313 313 315 315 315 313
323 318 327 330 327 330 329 328 327 326 325 325 325 325 324 324 324 324 324 324 323 324 323 325 323 318 316 315 313 306 307 306 309 311 311 312 312 312 311 311 312 312 312
323 321 321 329 329 331 330 329 329 327 325 323 323 323 324 324 324 324 323 324 324 324 325 325 322 321 317 314 314 313 303 305 298 303 305 307 308 308 309 309 308 307 306
317 320 323 328 330 331 331 330 328 327 325 324 322 322 322 322 321 322 322 324 317 323 324 324 323 320 319 313 309 312 310 304 302 302 300 301 302 303 304 305 305 304 304
313 320 323 326 326 329 331 329 328 327 325 325 324 323 322 322 322 322 321 323 324 325 325 325 322 318 317 315 313 311 306 303 300 299 306 300 298 300 301 301 302 302 301
315 323 324 325 328 328 328 329 327 326 324 323 323 322 322 323 323 323 323 323 324 324 324 323 322 317 317 316 316 312 311 302 303 301 300 303 301 301 301 300 300 299 298
Wind_Speed
27 41 38 38 33 29 28 28 30 30 29 28 27 25 24 24 24 25 22 20 19 18 17 17 18 16 17 16 16 14 13 12 14 14 15 15 15 15 16 17 18 19 19
35 43 41 39 37 32 30 30 31 29 29 28 26 25 24 24 23 23 22 21 20 19 18 18 18 17 15 16 16 15 17 18 16 16 17 15 16 16 16 17 17 17 17
40 45 42 39 37 35 33 31 31 30 29 28 27 25 24 24 24 22 22 21 20 19 18 18 18 17 16 16 16 14 15 15 15 16 16 17 17 19 20 19 19 19 17
45 45 43 41 39 37 34 33 32 31 30 28 27 26 24 24 23 23 22 21 20 19 19 18 17 16 16 16 15 13 14 14 16 18 19 19 19 18 16 15 14 13 12
40 42 43 41 39 38 34 35 34 33 32 31 28 27 25 23 23 22 22 21 21 20 18 17 17 16 17 16 14 12 15 14 18 17 19 19 18 16 15 14 14 13 13
35 38 43 42 39 38 35 35 35 34 32 31 28 25 24 24 23 23 22 21 20 19 18 17 16 16 16 15 14 14 15 16 17 17 17 17 13 14 13 13 12 13 13
31 33 43 43 40 38 35 35 35 33 32 29 27 25 25 24 23 22 20 21 20 18 17 17 16 15 15 14 14 14 14 17 16 18 16 14 16 14 12 11 11 13 13
27 26 35 40 39 38 35 34 36 34 32 30 28 25 24 24 22 21 22 20 19 18 16 16 15 16 15 14 14 16 15 16 17 19 18 16 14 12 12 11 12 12 12
24 29 30 36 37 36 35 35 36 34 33 31 29 26 26 24 22 21 20 20 18 18 15 16 16 15 14 14 15 16 17 17 18 18 16 16 14 10 11 11 12 12 11
26 29 33 35 35 35 34 35 36 35 32 31 29 27 26 25 23 21 19 20 18 18 16 16 16 15 15 15 17 17 18 18 17 16 15 15 14 10 11 12 11 11 10
26 31 33 33 35 33 34 35 36 33 31 29 27 28 27 27 24 22 20 20 18 19 17 16 15 14 14 15 18 19 18 17 16 14 13 15 13 11 11 11 10 9 9
26 31 35 34 35 34 34 35 37 35 31 29 29 29 29 28 26 23 21 20 20 18 17 16 14 13 14 17 19 19 18 17 15 13 13 16 13 12 12 11 10 8 7
27 29 35 35 36 35 33 37 37 36 34 31 33 31 30 29 26 24 23 22 21 19 17 18 15 15 16 17 21 20 19 17 16 14 13 15 15 14 14 13 12 10 6
20 29 33 37 37 36 30 37 35 36 33 33 33 32 32 29 27 26 26 24 22 22 20 17 15 15 18 19 20 19 18 18 17 14 14 16 16 16 15 14 15 13 9
17 30 35 38 40 39 34 34 36 39 33 33 32 33 32 29 29 28 26 25 23 22 20 18 16 17 19 20 20 19 19 19 18 16 15 16 18 18 17 17 17 15 11
20 15 34 39 41 41 39 36 38 37 36 33 30 32 32 31 30 29 28 26 24 23 20 18 17 16 18 20 20 19 19 20 19 18 17 17 19 19 20 19 19 17 12
21 22 28 37 42 41 38 40 39 39 38 35 32 31 32 31 31 30 29 27 26 24 21 19 18 17 17 19 19 20 20 21 20 20 18 18 19 20 20 20 20 19 14
17 22 25 36 35 45 46 39 37 39 39 37 37 33 31 31 31 30 29 27 26 25 22 21 20 18 17 18 19 19 20 21 20 20 19 19 20 21 22 22 21 19 15
17 19 20 31 36 40 39 37 37 41 41 39 38 37 34 32 30 30 29 29 27 26 25 23 22 20 19 17 17 19 19 20 21 20 21 21 21 21 22 23 24 24 21
22 12 20 23 15 37 35 30 28 33 34 37 39 38 36 34 33 30 30 30 28 28 27 26 25 23 20 18 17 17 18 20 21 23 23 23 23 22 23 25 28 29 28
19 14 15 25 20 32 31 29 28 27 28 31 35 38 37 35 34 33 31 30 28 29 31 29 28 27 20 19 13 12 16 21 25 27 27 27 28 26 26 27 28 29 30
19 8 16 23 21 39 36 35 30 29 29 34 36 37 36 35 35 36 36 32 29 27 30 31 30 26 22 21 9 3 2 6 22 32 32 32 33 30 31 31 31 32 31
18 13 11 24 29 32 28 33 28 28 21 22 25 29 35 35 36 36 38 34 32 30 35 34 34 35 28 26 25 7 1 5 1 9 22 34 36 34 35 34 34 33 32
14 10 14 18 14 27 34 36 34 31 23 21 30 33 36 35 35 36 37 34 32 37 36 36 36 38 31 25 25 28 21 6 4 4 9 16 24 33 36 37 36 35 34
13 8 11 9 10 11 17 28 28 25 24 26 31 32 33 35 34 35 38 38 38 38 37 35 39 38 38 27 28 18 27 22 13 5 7 3 6 15 22 29 34 36 35
7 13 8 7 7 6 8 13 24 25 22 24 25 27 30 31 33 34 34 37 36 36 37 37 39 38 40 39 37 30 20 6 9 10 5 10 9 14 17 16 19 24 27
Wind_Direction
185 174 174 171 167 162 157 158 154 151 148 146 148 147 148 148 145 140 141 141 141 140 137 138 135 138 132 131 122 123 116 124 124 112 107 103 100 101 99 96 93 89 86
174 174 175 173 167 164 160 160 159 160 156 153 150 155 153 149 147 146 144 144 142 141 142 141 140 141 137 138 132 124 115 113 116 114 109 110 108 105 104 100 97 92 88
171 171 175 174 170 167 166 162 163 164 160 156 159 158 154 152 149 149 148 146 144 144 143 143 141 142 141 140 134 132 124 123 119 120 118 115 113 107 100 96 92 91 92
170 172 175 175 175 170 172 164 163 166 163 160 163 159 157 154 152 151 152 150 148 147 147 146 145 144 145 144 140 138 137 128 123 124 120 116 110 104 101 102 97 98 104
171 173 176 176 178 174 176 168 166 167 164 163 161 160 158 157 156 155 154 153 152 151 150 149 149 148 148 148 144 137 144 137 135 128 125 122 118 105 103 107 98 96 96
172 175 177 178 179 176 177 171 169 169 167 165 163 168 162 161 161 158 157 156 155 154 153 153 152 153 154 153 149 145 147 141 142 134 131 131 117 113 106 105 95 95 95
174 176 179 180 181 178 178 174 171 171 168 165 167 170 165 165 163 162 162 159 157 159 155 152 155 160 159 160 157 157 156 152 149 140 138 140 130 118 110 108 104 102 101
174 178 179 183 181 180 179 177 175 176 171 170 171 174 172 168 169 169 164 164 164 162 158 157 160 166 167 166 165 166 160 157 152 148 152 148 140 125 117 117 115 109 106
178 179 179 186 184 182 184 178 177 177 175 177 176 179 173 175 175 174 170 169 170 163 163 165 169 171 172 166 172 170 164 160 157 156 158 155 143 137 130 131 126 118 112
180 184 182 179 184 185 186 184 178 180 180 179 176 182 180 176 179 177 175 175 174 168 171 174 176 174 175 171 176 172 168 164 162 161 163 162 148 141 143 140 134 126 119
183 188 187 180 188 188 188 186 181 181 179 177 183 183 182 178 181 179 180 179 177 176 176 175 179 179 182 180 176 175 174 173 170 171 174 170 155 158 154 151 144 139 131
188 187 189 186 189 191 188 186 183 180 179 182 186 187 182 181 182 180 185 183 183 181 177 181 182 185 188 190 185 183 183 182 183 178 176 181 173 171 174 168 163 156 149
208 191 185 187 189 188 186 185 185 182 180 185 187 188 188 185 186 187 186 189 186 183 181 188 191 190 191 189 186 187 189 192 191 187 187 189 184 184 182 179 178 175 177
239 205 185 184 187 184 185 187 185 183 185 188 190 190 189 187 190 190 193 192 190 188 188 192 195 192 189 187 190 193 198 199 200 201 194 195 199 199 199 198 192 188 201
293 217 188 184 185 183 186 185 188 186 186 189 190 193 193 192 195 196 197 195 195 193 194 194 197 196 193 194 199 204 206 210 212 210 207 209 210 212 215 211 203 204 201
280 261 190 186 181 179 184 184 188 188 191 190 192 194 197 198 199 200 199 199 201 200 199 201 200 195 198 203 207 212 217 219 219 221 220 220 222 223 223 222 213 212 216
288 279 240 181 178 179 182 185 187 189 192 191 195 196 201 199 204 206 203 201 202 203 204 203 201 203 206 210 217 223 224 223 225 228 230 231 232 231 232 229 224 217 218
270 260 257 189 182 179 180 182 184 190 194 194 198 197 202 205 209 209 208 208 204 207 207 208 205 204 208 214 220 223 223 225 229 233 236 238 239 235 234 237 235 219 224
252 245 251 226 187 181 175 180 185 193 195 197 200 202 203 209 210 213 212 212 209 210 211 211 209 211 210 215 222 225 227 231 235 237 241 244 243 240 238 236 228 229 234
243 255 248 230 206 170 168 179 184 187 191 197 203 206 208 211 213 217 219 217 215 215 214 214 215 211 217 219 218 225 231 237 242 244 245 246 246 245 242 237 234 241 243
229 211 226 225 210 174 171 178 182 186 187 194 204 209 212 213 214 216 221 221 222 223 219 218 217 213 212 207 195 226 242 245 247 248 249 248 248 245 244 242 241 244 248
211 186 233 221 220 185 169 184 183 188 192 199 205 211 214 213 216 219 222 223 222 224 224 224 220 208 212 207 188 153 280 271 250 248 247 247 248 247 246 245 246 248 251
221 188 206 210 202 204 185 175 179 182 192 191 202 209 216 218 220 221 222 224 223 230 226 227 231 219 207 213 213 187 157 223 309 242 247 246 247 246 248 248 249 251 254
236 205 211 209 204 209 196 174 178 178 182 191 197 209 215 216 219 223 222 224 224 230 227 233 226 224 221 208 217 227 235 221 203 301 243 249 249 248 250 252 253 256 258
255 223 206 209 227 249 188 172 178 189 190 187 196 206 215 214 219 223 224 224 228 229 231 232 231 228 229 224 213 218 228 236 236 204 270 254 274 265 260 262 262 261 261
257 232 162 175 161 148 212 199 190 195 181 179 190 198 210 218 221 225 228 231 233 234 233 238 238 236 236 233 236 229 223 190 218 215 247 266 271 279 274 273 275 274 269